Location: Chippewa Lake
(41.0698°N, 81.9010°W)
Time: 07:46:38
(UTC+00:00)

Envisat - Visible Passes

Search period start: 28 May 2023 00:00
Search period end: 07 June 2023 00:00
Orbit: 763 x 765 km, 98.2° (Epoch: 27 May)

Date Brightness Start Highest point End Pass type
(mag) Time Alt. Az. Time Alt. Az. Time Alt. Az.
28 May 5.6 07:59:13 10° ENE 08:01:25 13° E 08:03:38 10° ESE visible
29 May 3.9 08:58:49 10° NNE 09:03:46 50° E 09:08:40 10° S visible
30 May 5.1 08:22:27 10° NE 08:26:24 22° E 08:30:20 10° SE visible
31 May 3.1 09:23:25 10° NNE 09:28:32 87° ESE 09:33:35 10° SSW visible
01 Jun 4.3 08:46:34 10° NNE 08:51:18 38° E 08:56:00 10° SSE visible
02 Jun 5.5 08:10:34 10° NE 08:13:52 17° E 08:17:10 10° SE visible
03 Jun 3.4 09:11:02 10° NNE 09:16:05 67° E 09:21:08 10° S visible
04 Jun 4.7 08:34:23 10° NE 08:38:48 29° E 08:43:12 10° SSE visible
05 Jun 5.6 07:59:00 10° ENE 08:01:18 13° E 08:03:36 10° ESE visible
06 Jun 3.8 08:58:41 10° NNE 09:03:39 51° E 09:08:34 10° S visible
